Weather History for Gillette, WY

Change the Weather History Date:

Wednesday, June 12, 2013

  Actual Average Record
Temperature  
Mean Temperature 63 °F 61 °F  
Max Temperature 74 °F 75 °F 94 °F (1959)
Min Temperature 51 °F 46 °F 33 °F (1969)
Degree Days  
Heating Degree Days 2 6  
Month to date heating degree days 77 84  
Since 1 June heating degree days 77 84  
Since 1 July heating degree days 7390 7486  
Cooling Degree Days 0 1  
Month to date cooling degree days 4 12  
Year to date cooling degree days 12 20  
Since 1 June cooling degree days 4 12  
Growing Degree Days 12 (Base 50)    
Moisture  
Dew Point 53 °F    
Average Humidity 77    
Maximum Humidity 100    
Minimum Humidity 53    
Precipitation  
Precipitation 0.03 in 0.08 in 2.34 in (1970)
Month to date precipitation 0.35 1.05  
Year to date precipitation 7.39 6.71  
Sea Level Pressure  
Sea Level Pressure 30.04 in    
Wind  
Wind Speed 9 mph (ENE)    
Max Wind Speed 29 mph    
Max Gust Speed 35 mph    
Visibility 10 miles    
Events Rain , Thunderstorm    
T = Trace of Precipitation, MM = Missing Value Source: NWS Daily Summary

Daily Weather History Graph

Daily Weather History Graph

Search for Another Location

Airport:

Trip Planner

Search our weather history database for the weather conditions in past years. The results will help you decide how hot, cold, wet, or windy it might be!

Date:

Astronomy

Jun. 12, 2013 Rise Set
Actual Time 5:17 AM MDT 8:46 PM MDT
Civil Twilight 4:41 AM MDT 9:23 PM MDT
Nautical Twilight 3:53 AM MDT 10:11 PM MDT
Astronomical Twilight 2:51 AM MDT 11:13 PM MDT
Moon 9:06 AM MDT (6/12) 11:16 PM MDT (6/12)
Length of Visible Light 16h 42m
Length of Day
15h 29m
Waxing Crescent, 14% of the Moon is Illuminated
Jun 12
Waxing Crescent
Jun 16
First Quarter
Jun 23
Full
Jun 29
Last Quarter
Jul 8
New

Hourly Weather History & Observations

Time (MDT) Temp. Dew Point Humidity Pressure Visibility Wind Dir Wind Speed Gust Speed Precip Events Conditions
12:53 AM 55.0 °F 54.0 °F 96% 29.88 in 10.0 mi West 4.6 mph - N/A   Clear
1:53 AM 55.9 °F 54.0 °F 93% 29.89 in 10.0 mi SW 8.1 mph - N/A   Clear
2:53 AM 54.0 °F 53.1 °F 97% 29.91 in 10.0 mi West 9.2 mph - N/A   Clear
3:53 AM 55.0 °F 52.0 °F 89% 29.90 in 10.0 mi West 6.9 mph - N/A   Scattered Clouds
4:53 AM 53.1 °F 51.1 °F 93% 29.96 in 10.0 mi NW 6.9 mph - N/A   Partly Cloudy
5:53 AM 52.0 °F 51.1 °F 97% 30.02 in 10.0 mi WNW 4.6 mph - N/A   Clear
6:53 AM 55.0 °F 53.1 °F 93% 30.04 in 10.0 mi NNW 5.8 mph - N/A   Scattered Clouds
7:53 AM 55.9 °F 51.1 °F 84% 30.05 in 10.0 mi NNW 8.1 mph - N/A   Mostly Cloudy
8:08 AM 57.2 °F 51.8 °F 82% 30.12 in 10.0 mi North 6.9 mph - N/A   Overcast
8:46 AM 57.2 °F 51.8 °F 82% 30.13 in 10.0 mi NNE 6.9 mph - N/A   Overcast
8:53 AM 57.0 °F 51.1 °F 81% 30.05 in 10.0 mi NNE 5.8 mph - N/A   Overcast
9:13 AM 59.0 °F 51.8 °F 77% 30.13 in 10.0 mi North 5.8 mph - N/A   Overcast
9:53 AM 60.1 °F 51.1 °F 72% 30.05 in 10.0 mi NNE 4.6 mph - N/A   Overcast
10:53 AM 61.0 °F 52.0 °F 72% 30.05 in 10.0 mi Variable 5.8 mph - N/A   Mostly Cloudy
11:46 AM 64.4 °F 53.6 °F 68% 30.13 in 10.0 mi ENE 6.9 mph - N/A   Partly Cloudy
11:53 AM 64.9 °F 53.1 °F 65% 30.04 in 10.0 mi ENE 4.6 mph - N/A   Scattered Clouds
12:13 PM 66.2 °F 53.6 °F 64% 30.13 in 10.0 mi East 3.5 mph - N/A   Mostly Cloudy
12:53 PM 66.9 °F 54.0 °F 63% 30.04 in 10.0 mi East 10.4 mph - N/A   Mostly Cloudy
1:05 PM 68.0 °F 53.6 °F 60% 30.13 in 10.0 mi East 9.2 mph - N/A   Scattered Clouds
1:53 PM 70.0 °F 54.0 °F 57% 30.02 in 10.0 mi SE 8.1 mph - N/A   Clear
2:53 PM 71.1 °F 55.0 °F 57% 30.01 in 10.0 mi East 6.9 mph - N/A   Clear
3:53 PM 73.0 °F 55.0 °F 53% 29.98 in 10.0 mi East 10.4 mph - N/A   Clear
4:53 PM 72.0 °F 53.1 °F 51% 29.95 in 10.0 mi East 10.4 mph - N/A   Clear
5:53 PM 70.0 °F 54.0 °F 57% 29.96 in 10.0 mi East 11.5 mph - N/A   Clear
6:53 PM 68.0 °F 55.0 °F 63% 29.95 in 10.0 mi ENE 11.5 mph - N/A   Clear
7:07 PM 68.0 °F 55.4 °F 64% 30.08 in 10.0 mi Variable 4.6 mph - N/A Thunderstorm Thunderstorm
7:34 PM 66.2 °F 55.4 °F 68% 30.05 in 10.0 mi ENE 11.5 mph - N/A Thunderstorm Thunderstorm
7:44 PM 66.2 °F 55.4 °F 68% 30.05 in 10.0 mi ENE 16.1 mph - N/A   Scattered Clouds
7:53 PM 66.0 °F 55.0 °F 68% 29.94 in 10.0 mi East 13.8 mph - N/A   Clear
8:12 PM 66.2 °F 55.4 °F 68% 30.02 in 10.0 mi East 15.0 mph - N/A Thunderstorm Clear
8:39 PM 64.4 °F 55.4 °F 73% 30.13 in 10.0 mi North 8.1 mph - N/A   Overcast
8:53 PM 64.9 °F 54.0 °F 68% 30.01 in 10.0 mi East 15.0 mph - N/A Thunderstorm Mostly Cloudy
9:02 PM 64.4 °F 53.6 °F 68% 30.10 in 10.0 mi SE 12.7 mph - N/A   Mostly Cloudy
9:53 PM 64.0 °F 53.1 °F 67% 30.03 in 10.0 mi ESE 16.1 mph - N/A   Overcast
10:03 PM 62.6 °F 53.6 °F 72% 30.14 in 10.0 mi SSE 18.4 mph 25.3 mph N/A Thunderstorm Thunderstorm
10:15 PM 62.6 °F 53.6 °F 72% 30.15 in 10.0 mi SE 12.7 mph 18.4 mph N/A Thunderstorm Thunderstorm
10:36 PM 60.8 °F 53.6 °F 77% 30.12 in 10.0 mi SSE 17.3 mph 32.2 mph 0.03 in Rain Light Rain
10:53 PM 59.0 °F 53.1 °F 81% 30.04 in 10.0 mi SE 15.0 mph - 0.03 in   Partly Cloudy
11:53 PM 57.0 °F 52.0 °F 83% 30.03 in 10.0 mi SE 10.4 mph - N/A   Partly Cloudy